| time (UTC) | temp F | wind direction | speed MPH | gust MPH | rain 1hr in | rain 24hr in | rain mn in | humidity % | barometer mb |
| 20260904170033 | 0 | 0.0 | 0.0 | 0.00 | 0.00 | 0.00 | 1012.1 | ||
| 20260904164529 | 0 | 0.0 | 0.0 | 0.00 | 0.00 | 0.00 | 1012.0 | ||
| 20260904163025 | 0 | 0.0 | 0.0 | 0.00 | 0.00 | 0.00 | 1011.9 | ||
| 20260904161520 | 0 | 0.0 | 0.0 | 0.00 | 0.00 | 0.00 | 1011.8 | ||
| 20260904160017 | 0 | 0.0 | 0.0 | 0.00 | 0.00 | 0.00 | 1011.9 | ||
| 20260904154531 | 0 | 0.0 | 0.0 | 0.00 | 0.00 | 0.00 | 1012.0 | ||
| 20260904153010 | 0 | 0.0 | 0.0 | 0.00 | 0.00 | 0.00 | 1012.0 | ||
| 20260904151510 | 0 | 0.0 | 0.0 | 0.00 | 0.00 | 0.00 | 1012.3 | ||
| 20260904150002 | 0 | 0.0 | 0.0 | 0.00 | 0.00 | 0.00 | 1012.3 | ||
| 20260904144559 | 0 | 0.0 | 0.0 | 0.00 | 0.00 | 0.00 | 1012.3 | ||
| 20260904143057 | 0 | 0.0 | 0.0 | 0.00 | 0.00 | 0.00 | 1012.3 | ||
| 20260904141550 | 0 | 0.0 | 0.0 | 0.00 | 0.00 | 0.00 | 1012.3 | ||
| 20260904140045 | 0 | 345 | 0.0 | 3.0 | 0.00 | 0.00 | 0.00 | 1012.4 | |
| 20260904134549 | 44 | 49 | 0.0 | 2.0 | 0.00 | 0.00 | 0.00 | 87 | 1012.3 |
| 20260904133056 | 44 | 297 | 0.0 | 3.0 | 0.00 | 0.00 | 0.00 | 87 | 1012.2 |
| 20260904131542 | 44 | 145 | 0.0 | 2.0 | 0.00 | 0.00 | 0.00 | 87 | 1012.2 |
| 20260904130041 | 44 | 58 | 0.0 | 2.0 | 0.00 | 0.00 | 0.00 | 88 | 1012.1 |
| 20260904124541 | 44 | 120 | 0.0 | 3.0 | 0.00 | 0.00 | 0.00 | 87 | 1012.0 |
| 20260904123039 | 44 | 141 | 0.0 | 3.0 | 0.00 | 0.00 | 0.00 | 87 | 1012.1 |
| 20260904121537 | 44 | 195 | 0.0 | 1.0 | 0.00 | 0.00 | 0.00 | 86 | 1012.1 |
| 20260904120051 | 45 | 228 | 0.0 | 2.0 | 0.00 | 0.00 | 0.00 | 86 | 1012.2 |
| 20260904114535 | 45 | 34 | 0.0 | 3.0 | 0.00 | 0.00 | 0.00 | 85 | 1012.3 |
| 20260904113035 | 45 | 325 | 0.0 | 1.0 | 0.00 | 0.00 | 0.00 | 84 | 1012.3 |
| 20260904111532 | 45 | 266 | 0.0 | 1.0 | 0.00 | 0.00 | 0.00 | 83 | 1012.4 |
| 20260904110032 | 45 | 15 | 0.0 | 1.0 | 0.00 | 0.00 | 0.00 | 83 | 1012.5 |
| 20260904104552 | 45 | 139 | 0.0 | 4.0 | 0.00 | 0.00 | 0.00 | 83 | 1012.4 |
| 20260904103030 | 45 | 22 | 0.0 | 2.0 | 0.00 | 0.00 | 0.00 | 82 | 1012.4 |
| 20260904101536 | 45 | 52 | 0.0 | 1.0 | 0.00 | 0.00 | 0.00 | 81 | 1012.4 |
| 20260904100028 | 45 | 131 | 0.0 | 3.0 | 0.00 | 0.00 | 0.00 | 81 | 1012.5 |
| 20260904094535 | 45 | 26 | 0.0 | 1.0 | 0.00 | 0.00 | 0.00 | 80 | 1012.3 |
| 20260904093027 | 45 | 68 | 0.0 | 2.0 | 0.00 | 0.00 | 0.00 | 80 | 1012.5 |
| 20260904091523 | 45 | 336 | 0.0 | 2.0 | 0.00 | 0.00 | 0.00 | 80 | 1012.5 |
| 20260904090024 | 45 | 144 | 0.0 | 6.0 | 0.00 | 0.00 | 0.00 | 79 | 1012.7 |
| 20260904084521 | 46 | 263 | 0.0 | 2.0 | 0.00 | 0.00 | 0.00 | 79 | 1012.8 |
| 20260904083018 | 46 | 269 | 0.0 | 1.0 | 0.00 | 0.00 | 0.00 | 79 | 1013.0 |
| 20260904081516 | 46 | 220 | 0.0 | 2.0 | 0.00 | 0.00 | 0.00 | 78 | 1013.1 |
| 20260904080016 | 46 | 121 | 0.0 | 2.0 | 0.00 | 0.00 | 0.00 | 78 | 1013.2 |
| 20260904074515 | 46 | 317 | 0.0 | 2.0 | 0.00 | 0.00 | 0.00 | 78 | 1013.3 |
| 20260904073016 | 46 | 219 | 0.0 | 2.0 | 0.00 | 0.00 | 0.00 | 78 | 1013.4 |
| 20260904071513 | 46 | 54 | 0.0 | 1.0 | 0.00 | 0.00 | 0.00 | 78 | 1013.5 |
| 20260904070027 | 46 | 141 | 0.0 | 3.0 | 0.00 | 0.00 | 0.00 | 77 | 1013.5 |
| 20260904064511 | 46 | 92 | 0.0 | 2.0 | 0.00 | 0.00 | 0.00 | 76 | 1013.7 |
| 20260904063011 | 46 | 347 | 0.0 | 1.0 | 0.00 | 0.00 | 0.00 | 76 | 1013.8 |
| 20260904061511 | 46 | 103 | 0.0 | 1.0 | 0.00 | 0.00 | 0.00 | 75 | 1014.0 |
| 20260904060009 | 46 | 155 | 0.0 | 1.0 | 0.00 | 0.00 | 0.00 | 75 | 1014.0 |
| 20260904054508 | 46 | 188 | 0.0 | 2.0 | 0.00 | 0.00 | 0.00 | 75 | 1014.3 |
| 20260904053008 | 46 | 107 | 0.0 | 3.0 | 0.00 | 0.00 | 0.00 | 75 | 1014.3 |
| 20260904051506 | 46 | 271 | 0.0 | 2.0 | 0.00 | 0.00 | 0.00 | 74 | 1014.4 |
| 20260904050015 | 46 | 193 | 0.0 | 1.0 | 0.00 | 0.00 | 0.00 | 74 | 1014.6 |
| 20260904044515 | 46 | 128 | 0.0 | 2.0 | 0.00 | 0.00 | 0.00 | 74 | 1014.5 |
| 20260904043004 | 46 | 238 | 0.0 | 3.0 | 0.00 | 0.00 | 0.00 | 74 | 1014.4 |
| 20260904041504 | 46 | 305 | 0.0 | 1.0 | 0.00 | 0.00 | 0.00 | 74 | 1014.3 |
| 20260904040003 | 46 | 58 | 0.0 | 3.0 | 0.00 | 0.00 | 0.00 | 74 | 1014.3 |
| 20260904034504 | 46 | 352 | 0.0 | 2.0 | 0.00 | 0.00 | 0.00 | 74 | 1014.0 |
| 20260904033002 | 46 | 229 | 0.0 | 3.0 | 0.00 | 0.00 | 0.00 | 75 | 1014.0 |
| 20260904031502 | 47 | 307 | 0.0 | 2.0 | 0.00 | 0.00 | 0.00 | 75 | 1013.7 |
| 20260904024622 | 47 | 253 | 0.0 | 3.0 | 0.00 | 0.00 | 0.00 | 76 | 1013.7 |
| 20260904023106 | 48 | 153 | 0.0 | 4.0 | 0.00 | 0.00 | 0.00 | 75 | 1013.8 |
| 20260904021600 | 48 | 267 | 0.0 | 5.0 | 0.00 | 0.00 | 0.00 | 74 | 1013.9 |
| 20260904020058 | 49 | 120 | 0.0 | 2.0 | 0.00 | 0.00 | 0.00 | 74 | 1013.7 |
| 20260904014609 | 49 | 187 | 0.0 | 5.0 | 0.00 | 0.00 | 0.00 | 73 | 1013.9 |
| 20260904013055 | 50 | 223 | 0.0 | 4.0 | 0.00 | 0.00 | 0.00 | 73 | 1014.1 |
| 20260904011555 | 51 | 186 | 0.0 | 4.0 | 0.00 | 0.00 | 0.00 | 72 | 1014.2 |
| 20260904010058 | 51 | 185 | 0.0 | 4.0 | 0.00 | 0.00 | 0.00 | 72 | 1014.2 |
| 20260904004553 | 51 | 121 | 0.0 | 6.0 | 0.00 | 0.00 | 0.00 | 71 | 1014.4 |
| 20260904003051 | 52 | 352 | 0.0 | 3.0 | 0.00 | 0.00 | 0.00 | 70 | 1014.5 |
| 20260904001559 | 52 | 239 | 0.0 | 3.0 | 0.00 | 0.00 | 0.00 | 69 | 1014.5 |
| 20260904000112 | 52 | 306 | 0.0 | 5.0 | 0.00 | 0.00 | 0.00 | 69 | 1014.5 |
| 20260903234547 | 52 | 86 | 1.0 | 6.0 | 0.00 | 0.00 | 0.00 | 69 | 1014.7 |
| 20260903233109 | 52 | 153 | 0.0 | 8.0 | 0.00 | 0.00 | 0.00 | 69 | 1014.9 |
| 20260903231548 | 52 | 160 | 1.0 | 9.0 | 0.00 | 0.00 | 0.00 | 69 | 1015.0 |
| 20260903230104 | 54 | 198 | 1.0 | 5.0 | 0.00 | 0.00 | 0.00 | 66 | 1015.0 |
| 20260903224552 | 53 | 77 | 0.0 | 7.0 | 0.00 | 0.00 | 0.00 | 67 | 1015.2 |
| 20260903223108 | 53 | 52 | 0.0 | 8.0 | 0.00 | 0.00 | 0.00 | 67 | 1015.2 |
| 20260903221543 | 54 | 79 | 1.0 | 7.0 | 0.00 | 0.00 | 0.00 | 65 | 1015.3 |
| 20260903220040 | 56 | 23 | 0.0 | 3.0 | 0.00 | 0.00 | 0.00 | 63 | 1015.4 |
| 20260903214546 | 55 | 71 | 0.0 | 4.0 | 0.00 | 0.00 | 0.00 | 63 | 1015.5 |
| 20260903213053 | 55 | 307 | 0.0 | 5.0 | 0.00 | 0.00 | 0.00 | 61 | 1015.4 |
| 20260903211542 | 55 | 126 | 0.0 | 6.0 | 0.00 | 0.00 | 0.00 | 61 | 1015.4 |
| 20260903210049 | 56 | 302 | 0.0 | 5.0 | 0.00 | 0.00 | 0.00 | 59 | 1015.6 |
| 20260903204537 | 56 | 175 | 1.0 | 5.0 | 0.00 | 0.00 | 0.00 | 59 | 1015.7 |
| 20260903203037 | 56 | 155 | 0.0 | 5.0 | 0.00 | 0.00 | 0.00 | 60 | 1015.8 |
| 20260903201533 | 56 | 32 | 0.0 | 4.0 | 0.00 | 0.00 | 0.00 | 58 | 1015.9 |
| 20260903200032 | 57 | 87 | 0.0 | 4.0 | 0.00 | 0.00 | 0.00 | 56 | 1016.1 |
| 20260903194541 | 58 | 281 | 1.0 | 5.0 | 0.00 | 0.00 | 0.00 | 55 | 1016.1 |
| 20260903193031 | 58 | 269 | 0.0 | 5.0 | 0.00 | 0.00 | 0.00 | 56 | 1016.1 |
| 20260903191528 | 57 | 182 | 1.0 | 7.0 | 0.00 | 0.00 | 0.00 | 54 | 1016.4 |
| 20260903190028 | 56 | 94 | 0.0 | 7.0 | 0.00 | 0.00 | 0.00 | 55 | 1016.7 |
| 20260903184527 | 56 | 287 | 0.0 | 4.0 | 0.00 | 0.00 | 0.00 | 55 | 1016.9 |
| 20260903183025 | 56 | 32 | 1.0 | 5.0 | 0.00 | 0.00 | 0.00 | 53 | 1016.9 |
| 20260903181523 | 57 | 187 | 2.0 | 5.0 | 0.00 | 0.00 | 0.00 | 48 | 1017.1 |
| 20260903180028 | 58 | 136 | 0.0 | 3.0 | 0.00 | 0.00 | 0.00 | 44 | 1017.2 |
| 20260903174521 | 58 | 58 | 1.0 | 3.0 | 0.00 | 0.00 | 0.00 | 43 | 1017.3 |
| 20260903173019 | 58 | 135 | 0.0 | 3.0 | 0.00 | 0.00 | 0.00 | 42 | 1017.4 |
| 20260903171523 | 57 | 212 | 1.0 | 4.0 | 0.00 | 0.00 | 0.00 | 42 | 1017.7 |